Location: Unspecified
(26.1220°N, 0.0000°E)
Time: 23:27:21
(UTC+00:00)

Envisat - Pass Details

Date: 25 May 2019
Orbit: 764 x 766 km, 98.1° (Epoch: 20 June)

Event Time Altitude Azimuth Distance (km) Brightness Sun altitude
Rises 18:56:52 0° 178° (S) 3,217 5.9 -3.4°
Reaches altitude 10° 18:59:13 10° 183° (S) 2,294 5.3 -3.8°
Maximum altitude 19:04:09 53° 260° (W) 935 3.9 -4.8°
Drops below altitude 10° 19:09:06 10° 337° (NNW) 2,303 6.3 -5.8°
Sets 19:11:28 0° 342° (NNW) 3,232 7.0 -6.3°
